Terug naar catalogus

GALAXY 35

ActiefCommunicatieGEO
NORAD 54741·PAYLOAD·🇺🇸 United States

Gelanceerd Dec 13, 2022 vanaf Guiana Space Centre

Loading…

TLE

VersSource: CelesTrak SupGP

Epoch: Sep 14, 2026, 00:00 UTC

1 54741C 22170A   26257.00000000 -.00000072  00000+0  00000+0 0  2570
2 54741   0.0102 211.2976 0002008 312.1108  96.4751  1.00272498    16

Volg GALAXY 35 in realtime met AllMySat

Download on the App Store